TimeCDT,TemperatureF,Dew PointF,Humidity,Sea Level PressureIn,VisibilityMPH,Wind Direction,Wind SpeedMPH,Gust SpeedMPH,PrecipitationIn,Events,Conditions,WindDirDegrees,DateUTC
12:13 AM,42.8,26.6,53,29.70,10.0,South,5.8,-,N/A,,Overcast,170,2012-10-08 05:13:00
12:33 AM,42.8,26.6,53,29.70,10.0,South,3.5,-,N/A,,Overcast,170,2012-10-08 05:33:00
12:53 AM,42.8,26.6,53,29.70,10.0,South,4.6,-,N/A,,Overcast,170,2012-10-08 05:53:00
1:13 AM,42.8,26.6,53,29.70,10.0,South,4.6,-,N/A,,Overcast,170,2012-10-08 06:13:00
1:33 AM,42.8,26.6,53,29.70,10.0,South,4.6,-,N/A,,Overcast,170,2012-10-08 06:33:00
1:53 AM,42.8,26.6,53,29.69,10.0,South,3.5,-,N/A,,Overcast,170,2012-10-08 06:53:00
2:13 AM,42.8,26.6,53,29.69,10.0,South,3.5,-,N/A,,Scattered Clouds,180,2012-10-08 07:13:00
2:33 AM,42.8,28.4,57,29.69,10.0,South,3.5,-,N/A,,Clear,190,2012-10-08 07:33:00
2:52 AM,42.8,28.4,57,29.68,10.0,Calm,Calm,-,N/A,,Clear,0,2012-10-08 07:52:00
3:13 AM,41.0,28.4,61,29.68,10.0,South,3.5,-,N/A,,Clear,180,2012-10-08 08:13:00
3:33 AM,41.0,28.4,61,29.66,10.0,South,3.5,-,N/A,,Scattered Clouds,180,2012-10-08 08:33:00
3:52 AM,41.0,28.4,61,29.66,10.0,South,3.5,-,N/A,,Scattered Clouds,180,2012-10-08 08:52:00
4:13 AM,41.0,28.4,61,29.65,10.0,Calm,Calm,-,N/A,,Scattered Clouds,0,2012-10-08 09:13:00
4:33 AM,39.2,28.4,65,29.65,10.0,Calm,Calm,-,N/A,,Scattered Clouds,0,2012-10-08 09:33:00
4:52 AM,37.4,28.4,70,29.65,10.0,Calm,Calm,-,N/A,,Scattered Clouds,0,2012-10-08 09:52:00
5:13 AM,37.4,30.2,75,29.65,10.0,Calm,Calm,-,N/A,,Overcast,0,2012-10-08 10:13:00
5:33 AM,37.4,30.2,75,29.64,10.0,Calm,Calm,-,N/A,,Overcast,0,2012-10-08 10:33:00
5:52 AM,39.2,28.4,65,29.64,10.0,Calm,Calm,-,N/A,,Overcast,0,2012-10-08 10:52:00
6:13 AM,37.4,28.4,70,29.63,10.0,SE,3.5,-,N/A,,Overcast,140,2012-10-08 11:13:00
6:33 AM,37.4,30.2,75,29.62,10.0,Calm,Calm,-,N/A,,Overcast,0,2012-10-08 11:33:00
6:53 AM,39.2,30.2,70,29.62,10.0,Calm,Calm,-,N/A,,Overcast,0,2012-10-08 11:53:00
7:13 AM,39.2,30.2,70,29.61,10.0,Calm,Calm,-,N/A,,Mostly Cloudy,0,2012-10-08 12:13:00
7:33 AM,39.2,30.2,70,29.61,10.0,SE,3.5,-,N/A,,Scattered Clouds,130,2012-10-08 12:33:00
7:53 AM,39.2,30.2,70,29.60,10.0,SE,4.6,-,N/A,,Scattered Clouds,130,2012-10-08 12:53:00
8:13 AM,39.2,30.2,70,29.59,10.0,SE,5.8,-,N/A,,Scattered Clouds,130,2012-10-08 13:13:00
8:33 AM,39.2,30.2,70,29.59,10.0,ESE,4.6,-,N/A,,Mostly Cloudy,120,2012-10-08 13:33:00
8:53 AM,41.0,30.2,65,29.58,10.0,ESE,5.8,-,N/A,,Mostly Cloudy,110,2012-10-08 13:53:00
9:13 AM,41.0,30.2,65,29.57,10.0,SE,4.6,-,N/A,,Overcast,130,2012-10-08 14:13:00
9:32 AM,42.8,30.2,61,29.57,10.0,ESE,5.8,-,N/A,,Overcast,120,2012-10-08 14:32:00
9:53 AM,42.8,30.2,61,29.55,10.0,ESE,6.9,-,N/A,,Overcast,120,2012-10-08 14:53:00
10:13 AM,42.8,30.2,61,29.54,10.0,SE,6.9,-,N/A,,Overcast,130,2012-10-08 15:13:00
10:33 AM,44.6,33.8,66,29.53,10.0,ESE,5.8,-,N/A,,Light Drizzle,120,2012-10-08 15:33:00
10:53 AM,44.6,33.8,66,29.54,10.0,Calm,Calm,-,N/A,Rain,Light Rain,0,2012-10-08 15:53:00
11:13 AM,42.8,35.6,76,29.54,7.0,SSE,4.6,-,N/A,Rain,Rain,160,2012-10-08 16:13:00
11:32 AM,42.8,35.6,76,29.53,10.0,Calm,Calm,-,N/A,Rain,Light Rain,0,2012-10-08 16:32:00
11:53 AM,42.8,37.4,81,29.53,7.0,Calm,Calm,-,0.03,Rain,Rain,0,2012-10-08 16:53:00
12:13 PM,42.8,37.4,81,29.53,7.0,Calm,Calm,-,0.02,Rain,Rain,0,2012-10-08 17:13:00
12:32 PM,42.8,37.4,81,29.52,4.0,Calm,Calm,-,0.05,Rain,Rain,0,2012-10-08 17:32:00
12:53 PM,42.8,39.2,87,29.50,10.0,NE,4.6,-,0.08,Rain,Light Rain,50,2012-10-08 17:53:00
1:13 PM,42.8,39.2,87,29.49,7.0,NE,5.8,-,0.03,Rain,Rain,50,2012-10-08 18:13:00
1:32 PM,42.8,39.2,87,29.49,10.0,Calm,Calm,-,0.06,Rain,Light Rain,0,2012-10-08 18:32:00
1:53 PM,42.8,39.2,87,29.49,7.0,East,3.5,-,0.08,Rain,Light Rain,80,2012-10-08 18:53:00
2:13 PM,42.8,41.0,93,29.48,10.0,East,5.8,-,0.01,,Light Drizzle,80,2012-10-08 19:13:00
2:32 PM,42.8,41.0,93,29.48,5.0,Calm,Calm,-,0.01,,Drizzle,0,2012-10-08 19:32:00
3:13 PM,42.8,42.8,100,29.48,3.0,Calm,Calm,-,N/A,,Light Drizzle,0,2012-10-08 20:13:00
3:32 PM,42.8,42.8,100,29.48,2.5,Calm,Calm,-,0.01,,Light Drizzle,0,2012-10-08 20:32:00
3:53 PM,42.8,42.8,100,29.49,2.5,Calm,Calm,-,0.01,,Light Drizzle,0,2012-10-08 20:53:00
4:13 PM,42.8,42.8,100,29.49,4.0,WSW,3.5,-,N/A,,Overcast,240,2012-10-08 21:13:00
4:32 PM,44.6,42.8,93,29.49,10.0,WSW,4.6,-,N/A,,Overcast,240,2012-10-08 21:32:00
4:53 PM,42.8,42.8,100,29.50,10.0,WSW,8.1,-,N/A,,Overcast,250,2012-10-08 21:53:00
5:13 PM,42.8,42.8,100,29.51,10.0,WSW,11.5,-,N/A,,Overcast,250,2012-10-08 22:13:00
5:33 PM,42.8,42.8,100,29.52,10.0,West,10.4,-,N/A,,Overcast,270,2012-10-08 22:33:00
5:53 PM,42.8,41.0,93,29.53,10.0,West,12.7,17.3,N/A,,Overcast,270,2012-10-08 22:53:00
6:13 PM,42.8,41.0,93,29.54,10.0,West,10.4,18.4,N/A,,Overcast,270,2012-10-08 23:13:00
6:33 PM,42.8,39.2,87,29.55,10.0,West,13.8,19.6,N/A,,Overcast,260,2012-10-08 23:33:00
6:53 PM,42.8,39.2,87,29.56,10.0,West,13.8,19.6,N/A,,Overcast,260,2012-10-08 23:53:00
7:33 PM,41.0,39.2,93,29.58,10.0,West,13.8,-,N/A,,Overcast,270,2012-10-09 00:33:00
7:53 PM,39.2,37.4,93,29.58,10.0,West,12.7,17.3,N/A,,Overcast,270,2012-10-09 00:53:00
8:12 PM,39.2,37.4,93,29.58,10.0,West,8.1,-,N/A,,Mostly Cloudy,260,2012-10-09 01:12:00
9:12 PM,39.2,37.4,93,29.59,10.0,West,8.1,-,N/A,,Overcast,280,2012-10-09 02:12:00
9:33 PM,39.2,37.4,93,29.59,10.0,WNW,5.8,-,N/A,,Overcast,290,2012-10-09 02:33:00
9:53 PM,39.2,37.4,93,29.59,10.0,WNW,4.6,-,N/A,,Overcast,290,2012-10-09 02:53:00
10:12 PM,41.0,37.4,87,29.59,10.0,West,4.6,-,N/A,,Overcast,280,2012-10-09 03:12:00
10:33 PM,41.0,39.2,93,29.59,10.0,West,3.5,-,N/A,,Overcast,280,2012-10-09 03:33:00
10:53 PM,42.8,39.2,87,29.58,10.0,Calm,Calm,-,N/A,,Overcast,0,2012-10-09 03:53:00
11:33 PM,42.8,41.0,93,29.58,10.0,SW,10.4,-,N/A,,Overcast,230,2012-10-09 04:33:00
11:53 PM,42.8,41.0,93,29.58,10.0,WSW,13.8,17.3,N/A,,Overcast,240,2012-10-09 04:53:00